Location: São Paulo
(23.5507°S, 46.6334°W)
Time: 17:36:31
(UTC-03:00)

Tiros 1 - Pass Details

Date: 14 February 2026
Orbit: 618 x 649 km, 48.4° (Epoch: 8 March)

Event Time Altitude Azimuth Distance (km) Brightness Sun altitude
Rises 06:55:22 0° 253° (WSW) 2,962 10.0 13.0°
Reaches altitude 10° 06:59:10 10° 283° (WNW) 2,037 9.2 13.8°
Maximum altitude 07:00:57 12° 306° (NW) 1,897 9.1 14.2°
Drops below altitude 10° 07:02:43 10° 328° (NNW) 2,022 9.4 14.6°
Sets 07:06:28 0° 359° (N) 2,912 10.4 15.5°
